Total_Precipitation_Accumulation
0.01 0.04 0.19 0.41 0.80 1.22 1.13 0.58 0.40 0.27 0.28 0.39 0.39 0.29 0.30 0.38 0.46 0.72 0.36 0.27 0.13 0.04 0.03 0.06 0.08 0.07 0.08 0.09 0.10 0.12 0.11 0.10 0.10 0.08 0.07 0.06 0.06 0.06 0.06 0.07 0.09 0.10 0.11 0.11 0.13 0.11 0.09 0.08 0.08
0.02 0.08 0.25 0.54 1.05 1.50 0.98 0.43 0.30 0.24 0.33 0.41 0.33 0.26 0.29 0.27 0.24 0.18 0.17 0.29 0.13 0.05 0.02 0.03 0.07 0.07 0.07 0.08 0.09 0.11 0.12 0.13 0.13 0.10 0.08 0.08 0.08 0.09 0.10 0.09 0.09 0.10 0.12 0.12 0.11 0.09 0.07 0.07 0.08
0.03 0.10 0.31 0.53 0.84 1.03 0.52 0.24 0.20 0.22 0.37 0.40 0.32 0.28 0.30 0.34 0.31 0.21 0.15 0.17 0.12 0.05 0.03 0.04 0.05 0.06 0.06 0.07 0.09 0.11 0.12 0.13 0.14 0.12 0.09 0.10 0.11 0.12 0.12 0.12 0.11 0.11 0.12 0.11 0.10 0.09 0.09 0.09 0.09
0.05 0.16 0.32 0.44 0.58 0.54 0.29 0.18 0.17 0.22 0.35 0.32 0.28 0.37 0.40 0.45 0.28 0.21 0.18 0.13 0.10 0.07 0.05 0.06 0.07 0.06 0.07 0.08 0.09 0.10 0.12 0.14 0.14 0.11 0.12 0.12 0.13 0.13 0.13 0.13 0.12 0.11 0.10 0.11 0.10 0.10 0.11 0.11 0.12
0.07 0.21 0.37 0.44 0.41 0.30 0.22 0.18 0.19 0.20 0.20 0.29 0.34 0.51 0.50 0.46 0.30 0.36 0.37 0.23 0.10 0.09 0.10 0.10 0.10 0.09 0.09 0.09 0.09 0.11 0.12 0.13 0.13 0.12 0.14 0.13 0.14 0.13 0.13 0.13 0.12 0.12 0.10 0.11 0.12 0.12 0.11 0.12 0.13
0.06 0.18 0.26 0.25 0.18 0.15 0.20 0.18 0.16 0.18 0.22 0.33 0.44 0.46 0.52 0.46 0.41 0.59 0.53 0.38 0.21 0.15 0.17 0.18 0.17 0.16 0.13 0.12 0.11 0.13 0.14 0.14 0.15 0.16 0.16 0.15 0.16 0.16 0.15 0.15 0.14 0.14 0.13 0.13 0.14 0.15 0.15 0.14 0.15
0.03 0.08 0.10 0.09 0.09 0.13 0.15 0.14 0.14 0.16 0.29 0.40 0.47 0.56 0.69 0.73 0.59 0.59 0.65 0.62 0.39 0.37 0.47 0.38 0.25 0.21 0.21 0.20 0.18 0.17 0.18 0.20 0.20 0.19 0.18 0.17 0.18 0.18 0.19 0.20 0.20 0.20 0.20 0.21 0.18 0.15 0.18 0.19 0.19
0.01 0.02 0.04 0.04 0.03 0.07 0.08 0.10 0.13 0.17 0.26 0.42 0.54 0.68 0.96 0.90 0.75 0.73 0.79 0.90 0.64 0.54 0.56 0.50 0.34 0.29 0.23 0.20 0.21 0.23 0.23 0.24 0.24 0.22 0.21 0.20 0.20 0.22 0.25 0.27 0.33 0.33 0.36 0.39 0.34 0.25 0.24 0.28 0.28
0.00 0.02 0.03 0.02 0.02 0.03 0.04 0.06 0.10 0.16 0.25 0.33 0.55 0.75 0.78 0.71 0.88 0.93 1.07 1.24 1.17 0.93 0.81 0.69 0.45 0.35 0.32 0.27 0.25 0.31 0.31 0.31 0.30 0.32 0.30 0.32 0.37 0.48 0.62 0.57 0.67 0.64 0.66 0.65 0.64 0.56 0.54 0.57 0.47
0.00 0.01 0.01 0.01 0.01 0.02 0.02 0.04 0.10 0.24 0.40 0.62 0.92 0.92 0.72 0.73 1.04 1.22 1.39 1.60 1.56 1.38 1.21 0.97 0.69 0.55 0.49 0.40 0.41 0.44 0.45 0.55 0.55 0.69 0.72 0.82 0.98 0.97 0.81 0.95 1.17 1.22 1.22 1.15 1.15 1.24 1.12 0.94 0.77
0.00 0.00 0.01 0.01 0.01 0.01 0.01 0.03 0.07 0.18 0.59 1.02 1.29 1.28 1.10 0.99 1.24 1.59 1.89 2.15 1.89 1.57 1.40 1.26 1.03 0.83 0.66 0.65 0.65 0.71 0.82 1.07 0.95 0.91 1.02 1.31 1.24 1.04 0.95 1.07 1.36 1.63 1.65 1.54 1.70 1.83 1.46 1.52 1.62
0.00 0.00 0.00 0.01 0.01 0.01 0.01 0.03 0.12 0.22 0.60 0.83 1.05 1.21 1.27 1.29 1.37 1.58 1.89 2.12 2.28 2.11 1.87 1.64 1.50 1.29 1.18 1.07 0.98 0.90 0.95 1.06 1.04 1.16 1.09 1.40 1.49 1.37 1.31 1.41 1.52 1.72 1.93 2.23 2.20 2.33 2.22 2.16 2.02
0.00 0.00 0.00 0.01 0.01 0.01 0.01 0.06 0.16 0.27 0.53 0.56 0.66 0.84 1.14 1.38 1.70 1.97 2.12 2.44 2.54 2.60 2.36 2.17 2.01 1.93 1.86 1.64 1.43 1.16 1.20 1.17 1.19 1.38 1.39 1.52 1.76 1.82 1.88 1.84 1.75 1.68 2.03 2.43 2.59 2.39 2.65 2.70 2.32
0.00 0.00 0.00 0.01 0.01 0.02 0.03 0.08 0.18 0.32 0.47 0.53 0.60 0.81 1.10 1.43 1.70 2.12 2.41 2.79 2.77 2.77 2.85 2.91 2.74 2.59 2.53 2.32 2.11 1.85 1.67 1.72 1.68 1.74 1.87 2.01 2.14 2.30 2.35 2.21 2.06 1.87 1.92 2.19 2.40 2.43 2.65 2.55 2.43
0.00 0.01 0.04 0.04 0.04 0.05 0.11 0.19 0.36 0.49 0.54 0.70 0.80 1.04 1.22 1.53 1.85 1.97 2.16 2.40 2.69 2.92 3.32 3.56 3.57 3.43 3.34 3.18 2.87 2.49 2.29 2.32 2.45 2.49 2.54 2.49 2.54 2.76 2.64 2.37 2.07 1.97 2.03 2.13 2.12 2.16 2.28 2.14 2.07
0.01 0.03 0.10 0.11 0.07 0.08 0.14 0.39 0.53 0.58 0.70 0.87 0.93 1.17 1.47 1.55 1.86 2.01 2.05 2.23 2.77 3.22 3.74 4.01 4.12 4.26 4.14 4.04 3.66 3.16 2.86 2.77 2.76 2.82 2.81 2.74 2.75 2.64 2.55 2.22 1.88 1.93 2.02 2.02 1.99 1.89 1.97 1.95 2.00
0.02 0.06 0.12 0.19 0.11 0.12 0.19 0.48 0.60 0.62 0.83 0.96 1.14 1.16 1.34 1.56 1.97 2.23 2.33 2.45 2.87 3.50 4.17 4.55 4.97 5.18 5.03 4.62 4.03 3.53 3.40 3.23 3.05 3.01 2.88 2.75 2.56 2.39 2.46 2.14 1.95 1.90 1.87 1.77 1.68 1.87 2.01 1.95 1.96
0.03 0.05 0.12 0.22 0.15 0.14 0.26 0.47 0.68 0.77 0.92 1.09 1.15 1.13 1.27 1.55 1.76 2.07 2.33 2.71 3.06 3.59 4.34 4.93 5.42 5.56 5.23 4.59 4.07 3.89 3.70 3.33 3.02 2.69 2.41 2.21 2.14 2.01 2.09 1.88 1.75 1.82 1.82 1.68 1.71 1.85 1.92 1.72 1.79
0.03 0.05 0.14 0.22 0.14 0.16 0.29 0.46 0.68 0.84 0.98 1.04 1.23 1.21 1.37 1.61 1.79 2.14 2.47 2.90 3.31 3.82 4.51 5.04 5.38 5.28 5.01 4.60 4.16 3.81 3.30 2.93 2.60 2.25 1.95 1.72 1.60 1.55 1.72 1.52 1.57 1.60 1.55 1.45 1.43 1.49 1.51 1.33 1.58
0.05 0.08 0.17 0.21 0.14 0.15 0.30 0.50 0.77 0.85 0.84 0.85 1.07 1.18 1.23 1.40 1.69 1.96 2.46 2.79 3.13 3.59 4.05 4.40 4.32 3.97 3.78 3.67 3.46 3.08 2.95 2.79 2.57 2.35 2.06 1.69 1.55 1.45 1.34 1.35 1.28 1.31 1.34 1.22 1.16 1.27 1.26 1.08 1.31
0.06 0.08 0.14 0.19 0.22 0.23 0.33 0.65 0.88 0.90 0.82 0.77 0.80 0.91 0.99 1.10 1.30 1.60 2.12 2.43 2.60 2.97 3.25 3.28 3.11 2.84 2.76 2.71 2.55 2.48 2.57 2.63 2.53 2.35 2.11 1.82 1.64 1.54 1.45 1.34 1.20 1.14 1.12 1.11 1.06 1.13 1.14 1.02 1.04
0.09 0.06 0.07 0.10 0.19 0.41 0.47 0.82 1.06 1.11 1.08 0.90 0.79 0.87 0.90 0.90 0.94 1.26 1.63 1.81 2.01 2.17 2.31 2.33 2.29 2.16 2.08 2.02 1.86 1.68 1.71 1.91 2.07 2.19 2.17 2.14 1.97 1.74 1.56 1.41 1.20 1.02 0.95 0.99 0.87 0.92 1.04 1.06 0.94
0.06 0.05 0.06 0.09 0.15 0.30 0.41 0.65 1.03 1.25 1.40 1.02 0.80 0.76 0.70 0.75 0.90 1.10 1.20 1.31 1.43 1.44 1.58 1.62 1.76 1.93 1.91 1.80 1.83 1.67 1.39 1.32 1.30 1.39 1.52 1.60 1.63 1.54 1.33 1.19 1.08 0.93 0.83 0.81 0.82 0.91 0.98 1.00 0.93
0.06 0.10 0.16 0.24 0.37 0.60 0.57 0.61 0.92 1.06 1.12 0.81 0.68 0.72 0.59 0.56 0.68 0.84 0.95 1.01 1.05 1.05 1.18 1.36 1.56 1.82 1.88 1.75 1.62 1.57 1.44 1.35 1.25 1.17 1.16 1.12 1.15 1.15 1.07 0.96 0.91 0.86 0.82 0.80 0.76 0.80 0.89 0.97 1.00
0.08 0.15 0.47 0.81 1.13 1.16 0.67 0.66 0.83 0.76 0.74 0.77 0.65 0.61 0.58 0.49 0.47 0.47 0.53 0.58 0.64 0.68 0.76 1.00 1.16 1.30 1.40 1.41 1.35 1.27 1.34 1.34 1.23 1.06 0.95 0.85 0.79 0.80 0.85 0.85 0.85 0.81 0.84 0.86 0.90 0.89 0.87 0.94 1.04
0.08 0.12 0.34 0.57 0.74 0.86 0.70 0.99 1.03 0.77 0.67 0.56 0.46 0.41 0.42 0.33 0.30 0.27 0.31 0.37 0.42 0.45 0.50 0.61 0.83 0.94 1.08 1.12 1.17 1.25 1.37 1.39 1.27 1.24 1.05 0.91 0.79 0.74 0.76 0.87 0.90 0.84 0.81 0.79 0.88 0.91 0.95 1.01 1.04
0.09 0.08 0.12 0.19 0.31 0.56 0.81 0.99 0.90 0.72 0.68 0.49 0.35 0.28 0.26 0.22 0.19 0.20 0.23 0.27 0.29 0.31 0.36 0.39 0.51 0.68 0.86 0.98 1.08 1.08 1.02 1.03 1.02 1.02 0.98 0.89 0.89 0.79 0.84 0.90 0.95 0.93 0.91 0.90 0.93 0.92 1.00 1.17 1.23
0.10 0.09 0.10 0.14 0.27 0.43 0.70 1.02 1.03 0.86 0.72 0.54 0.40 0.26 0.19 0.19 0.18 0.19 0.18 0.20 0.19 0.22 0.30 0.38 0.42 0.55 0.84 1.05 1.10 0.96 0.82 0.73 0.79 0.81 0.84 0.88 0.89 0.85 0.87 0.89 0.90 0.94 0.93 0.91 0.96 0.99 1.07 1.22 1.29
0.14 0.11 0.11 0.13 0.15 0.28 0.59 0.76 0.62 0.58 0.50 0.46 0.40 0.28 0.22 0.19 0.16 0.14 0.13 0.12 0.16 0.19 0.26 0.42 0.50 0.63 0.86 1.10 1.24 1.15 0.95 0.85 0.81 0.74 0.70 0.75 0.81 0.86 0.89 0.84 0.77 0.72 0.74 0.86 1.00 1.04 1.11 1.18 1.22
0.14 0.14 0.14 0.20 0.18 0.19 0.32 0.49 0.34 0.33 0.39 0.35 0.28 0.22 0.17 0.13 0.13 0.11 0.08 0.09 0.12 0.14 0.24 0.53 0.80 1.11 1.25 1.42 1.61 1.52 1.15 0.94 0.84 0.68 0.61 0.67 0.77 0.86 0.88 0.82 0.74 0.70 0.76 0.89 1.01 1.13 1.33 1.46 1.40